Location: Unspecified
(0.0000°N, 0.0000°E)
Time: 21:15:10
(UTC+00:00)

Transit 2A Rocket - Visible Passes

Search period start: 24 January 2017 00:00
Search period end: 03 February 2017 00:00
Orbit: 593 x 911 km, 66.7° (Epoch: 24 January)

Date Brightness Start Highest point End Pass type
(mag) Time Alt. Az. Time Alt. Az. Time Alt. Az.
24 Jan 7.2 19:41:42 10° WNW 19:45:14 23° WSW 19:48:59 10° SSW visible
25 Jan 5.6 18:58:33 10° NW 19:02:52 52° WSW 19:07:33 10° S visible
26 Jan 7.7 05:46:35 10° S 05:51:38 29° ESE 05:56:24 10° NE visible
27 Jan 8.5 05:06:10 10° SE 05:09:12 14° ESE 05:12:09 10° E visible
27 Jan 8.2 19:18:31 10° W 19:20:43 13° WSW 19:23:00 10° SW visible
28 Jan 7.1 18:34:23 10° NW 18:38:18 29° WSW 18:42:31 10° S visible
29 Jan 6.5 05:21:27 10° S 05:27:07 45° ESE 05:32:24 10° NE visible
30 Jan 7.7 04:40:10 10° SSE 04:44:43 23° ESE 04:49:04 10° ENE visible
31 Jan 8.5 04:00:48 10° SE 04:02:17 11° ESE 04:03:45 10° E visible
31 Jan 5.3 05:39:07 10° SSW 05:44:52 55° WNW 05:50:12 10° N visible
01 Feb 5.4 04:56:41 10° SSW 05:02:35 74° ESE 05:08:02 10° NNE visible
02 Feb 6.7 04:14:51 10° S 04:20:14 36° ESE 04:25:15 10° NE visible
